EDT,Max TemperatureF,Mean TemperatureF,Min TemperatureF,Max Dew PointF,MeanDew PointF,Min DewpointF,Max Humidity, Mean Humidity, Min Humidity, Max Sea Level PressureIn, Mean Sea Level PressureIn, Min Sea Level PressureIn, Max VisibilityMiles, Mean VisibilityMiles, Min VisibilityMiles, Max Wind SpeedMPH, Mean Wind SpeedMPH, Max Gust SpeedMPH,PrecipitationIn, CloudCover, Events, WindDirDegrees
2012-10-1,68,60,53,55,52,48,88,75,60,29.95,29.81,29.74,10,10,9,20,15,25,0.00,3,,245
2012-10-2,69,63,57,57,55,54,88,80,60,30.08,30.03,29.95,10,10,10,12,8,16,0.05,4,,238
2012-10-3,69,64,60,66,61,57,100,93,82,30.14,30.08,30.04,10,5,0,10,5,,0.00,8,,89
2012-10-4,62,60,59,63,60,57,100,97,94,30.15,30.10,30.03,2,1,0,10,5,,0.02,8,,23
2012-10-5,71,64,57,63,60,55,100,91,69,30.04,29.99,29.94,10,8,0,12,5,,0.00,4,,232
2012-10-6,73,66,59,64,60,52,100,84,65,29.93,29.85,29.75,10,9,5,17,10,24,0.03,1,,209
2012-10-7,57,54,51,48,44,39,88,68,54,30.07,30.03,29.93,10,10,5,20,10,24,0.04,4,,328
2012-10-8,55,52,48,46,44,41,93,76,62,30.34,30.21,30.06,10,10,5,20,11,25,0.08,3,,342
2012-10-9,57,54,50,54,49,45,94,81,72,30.32,30.22,30.13,10,10,7,18,11,24,0.00,8,,75
2012-10-10,64,60,55,61,57,54,100,90,82,30.13,29.93,29.73,10,10,5,18,11,24,0.01,7,,114
2012-10-11,59,52,44,54,39,36,88,61,44,30.16,30.03,29.79,10,10,10,23,17,34,0.00,0,,276
2012-10-12,57,50,42,46,38,27,87,62,43,30.34,30.11,30.02,10,10,9,28,17,34,0.01,2,,292
2012-10-13,48,42,37,34,28,25,75,54,40,30.47,30.41,30.35,10,10,10,20,12,26,0.00,2,,311
2012-10-14,62,55,48,57,51,34,94,79,54,30.35,30.14,29.99,10,10,7,26,13,37,0.07,7,,216
2012-10-15,68,64,60,61,59,55,94,84,73,29.99,29.80,29.63,10,10,9,17,14,24,0.00,3,,199
2012-10-16,62,56,50,61,46,36,100,71,51,29.87,29.66,29.55,10,10,10,22,13,30,0.07,4,,293
2012-10-17,53,47,41,45,39,34,93,69,54,30.03,29.95,29.87,10,10,10,16,9,22,0.00,0,,330
2012-10-18,62,52,42,52,46,39,94,78,52,30.13,30.09,30.03,10,10,9,12,5,17,0.00,0,,158
2012-10-19,66,60,53,64,58,52,100,86,68,30.10,29.96,29.79,10,10,6,20,11,29,0.47,5,Thunderstorm,134
2012-10-20,68,62,57,64,61,54,100,90,82,29.80,29.71,29.65,10,8,1,17,10,23,0.10,5,,195
2012-10-21,60,56,51,54,45,43,88,67,55,29.89,29.85,29.75,10,10,10,17,12,21,0.00,1,,267
2012-10-22,62,55,48,48,45,43,87,67,52,29.98,29.92,29.89,10,10,10,18,12,24,0.00,0,,289
2012-10-23,59,54,46,48,45,43,93,72,55,30.12,30.06,29.99,10,10,10,14,10,22,0.00,0,,317
2012-10-24,57,48,37,48,41,34,93,70,54,30.23,30.17,30.12,10,10,10,14,5,18,0.00,6,,51
2012-10-25,60,46,33,48,41,30,93,77,45,30.32,30.28,30.23,10,10,7,10,3,,0.00,0,,98
2012-10-26,64,52,39,52,40,28,94,76,26,30.28,30.25,30.18,10,10,7,12,4,,0.00,0,,193
2012-10-27,60,58,55,52,50,46,88,77,59,30.08,30.04,30.01,10,10,9,13,8,17,0.00,0,,51
2012-10-28,57,55,53,54,50,48,94,84,72,30.00,29.92,29.74,10,9,4,25,14,34,0.00,7,,71
2012-10-29,62,58,55,63,56,52,100,93,82,29.73,29.46,29.24,10,6,2,38,25,52,0.41,8,,77
2012-10-30,66,62,59,61,58,57,94,87,73,29.60,29.53,29.36,10,9,7,15,11,23,0.02,6,,136
2012-10-31,60,55,50,57,52,45,100,87,76,29.59,29.55,29.49,10,10,5,14,8,22,0.00,4,,196